Weather History for Americus, GA

Change the Weather History Date:

Monday, April 15, 2013

  Actual Average (KABY) Record (KABY)
Temperature  
Mean Temperature 65 °F 66 °F  
Max Temperature 77 °F 79 °F 91 °F (1936)
Min Temperature 53 °F 53 °F 36 °F (2008)
Degree Days  
Heating Degree Days 0 2  
Month to date heating degree days 47  
Since 1 July heating degree days 1816  
Cooling Degree Days 0 3  
Month to date cooling degree days 37  
Year to date cooling degree days 75  
Growing Degree Days 15 (Base 50)    
Moisture  
Dew Point 60 °F    
Average Humidity 85    
Maximum Humidity 100    
Minimum Humidity 57    
Precipitation  
Precipitation 0.00 in - 0.82 in (2014)
Sea Level Pressure  
Sea Level Pressure 30.03 in    
Wind  
Wind Speed 2 mph (East)    
Max Wind Speed 8 mph    
Max Gust Speed -    
Visibility 8 miles    
Events Fog    
T = Trace of Precipitation, MM = Missing Value Source: NWS Daily Summary

Daily Weather History Graph

Daily Weather History Graph

Search for Another Location

Airport:

Trip Planner

Search our weather history database for the weather conditions in past years. The results will help you decide how hot, cold, wet, or windy it might be!

Date:

Astronomy

Apr. 15, 2013 Rise Set
Actual Time 7:07 AM EDT 8:06 PM EDT
Civil Twilight 6:42 AM EDT 8:31 PM EDT
Nautical Twilight 6:12 AM EDT 9:01 PM EDT
Astronomical Twilight 5:42 AM EDT 9:32 PM EDT
Moon 10:42 AM EDT (4/15) 12:07 AM EDT (4/15)
Length of Visible Light 13h 49m
Length of Day
12h 58m
Waxing Crescent, 24% of the Moon is Illuminated
Apr 15
Waxing Crescent
Apr 18
First Quarter
Apr 25
Full
May 2
Last Quarter
May 9
New

Hourly Weather History & Observations

Time (EDT) Temp. Dew Point Humidity Pressure Visibility Wind Dir Wind Speed Gust Speed Precip Events Conditions
12:15 AM 55.4 °F 55.4 °F 100% 29.96 in 7.0 mi NE 3.5 mph - N/A   Clear
12:35 AM 55.4 °F 55.4 °F 100% 29.97 in 7.0 mi Calm Calm - N/A   Clear
12:55 AM 55.4 °F 55.4 °F 100% 29.96 in 7.0 mi Calm Calm - N/A   Clear
1:15 AM 53.6 °F 53.6 °F 100% 29.95 in 2.0 mi Calm Calm - N/A   Clear
1:35 AM 55.4 °F 55.4 °F 100% 29.95 in 1.5 mi Calm Calm - N/A   Mist
1:55 AM 53.6 °F 53.6 °F 100% 29.94 in 0.5 mi Calm Calm - N/A Fog Fog
2:15 AM 53.6 °F 53.6 °F 100% 29.94 in 0.8 mi North 3.5 mph - N/A   Mostly Cloudy
2:35 AM 55.4 °F 55.4 °F 100% 29.94 in 2.0 mi Calm Calm - N/A   Clear
2:55 AM 53.6 °F 53.6 °F 100% 29.94 in 0.8 mi Calm Calm - N/A   Overcast
3:15 AM 55.4 °F 55.4 °F 100% 29.94 in 3.0 mi Calm Calm - N/A   Overcast
3:35 AM 55.4 °F 55.4 °F 100% 29.94 in 3.0 mi NE 3.5 mph - N/A   Overcast
3:55 AM 53.6 °F 53.6 °F 100% 29.94 in 0.5 mi Calm Calm - N/A Fog Fog
4:15 AM 55.4 °F 55.4 °F 100% 29.95 in 0.5 mi Calm Calm - N/A Fog Fog
4:35 AM 55.4 °F 55.4 °F 100% 29.95 in 5.0 mi Calm Calm - N/A   Overcast
4:55 AM 55.4 °F 55.4 °F 100% 29.95 in 5.0 mi NNE 4.6 mph - N/A   Overcast
5:15 AM 55.4 °F 55.4 °F 100% 29.96 in 4.0 mi Calm Calm - N/A   Overcast
5:35 AM 55.4 °F 55.4 °F 100% 29.97 in 3.0 mi NNE 3.5 mph - N/A   Overcast
5:55 AM 55.4 °F 55.4 °F 100% 29.97 in 2.5 mi NE 3.5 mph - N/A   Overcast
6:15 AM 55.4 °F 55.4 °F 100% 29.98 in 2.5 mi NE 3.5 mph - N/A   Overcast
6:35 AM 55.4 °F 55.4 °F 100% 29.99 in 2.5 mi Calm Calm - N/A   Overcast
6:55 AM 57.2 °F 57.2 °F 100% 29.99 in 3.0 mi ENE 3.5 mph - N/A   Overcast
7:15 AM 57.2 °F 57.2 °F 100% 30.00 in 3.0 mi ENE 3.5 mph - N/A   Overcast
7:35 AM 57.2 °F 57.2 °F 100% 30.01 in 5.0 mi ENE 3.5 mph - N/A   Overcast
7:55 AM 59.0 °F 59.0 °F 100% 30.02 in 10.0 mi Calm Calm - N/A   Overcast
8:15 AM 59.0 °F 59.0 °F 100% 30.03 in 10.0 mi Calm Calm - N/A   Overcast
8:35 AM 59.0 °F 59.0 °F 100% 30.03 in 10.0 mi Calm Calm - N/A   Overcast
8:55 AM 60.8 °F 59.0 °F 94% 30.04 in 10.0 mi ESE 3.5 mph - N/A   Overcast
9:15 AM 60.8 °F 60.8 °F 100% 30.05 in 10.0 mi SE 5.8 mph - N/A   Overcast
9:35 AM 62.6 °F 60.8 °F 94% 30.05 in 10.0 mi SSE 3.5 mph - N/A   Overcast
9:55 AM 62.6 °F 60.8 °F 94% 30.06 in 10.0 mi SSE 3.5 mph - N/A   Overcast
10:15 AM 64.4 °F 60.8 °F 88% 30.06 in 10.0 mi SSE 4.6 mph - N/A   Overcast
10:35 AM 64.4 °F 60.8 °F 88% 30.06 in 10.0 mi Calm Calm - N/A   Overcast
10:55 AM 66.2 °F 60.8 °F 83% 30.07 in 10.0 mi Calm Calm - N/A   Overcast
11:15 AM 66.2 °F 59.0 °F 78% 30.07 in 10.0 mi Calm Calm - N/A   Overcast
11:35 AM 68.0 °F 59.0 °F 73% 30.07 in 10.0 mi North 3.5 mph - N/A   Overcast
11:55 AM 68.0 °F 59.0 °F 73% 30.07 in 10.0 mi Calm Calm - N/A   Overcast
12:15 PM 68.0 °F 59.0 °F 73% 30.07 in 10.0 mi Calm Calm - N/A   Overcast
12:35 PM 69.8 °F 59.0 °F 68% 30.07 in 10.0 mi Calm Calm - N/A   Overcast
12:55 PM 69.8 °F 59.0 °F 68% 30.07 in 10.0 mi Calm Calm - N/A   Mostly Cloudy
1:15 PM 69.8 °F 60.8 °F 73% 30.07 in 10.0 mi Calm Calm - N/A   Mostly Cloudy
1:35 PM 71.6 °F 60.8 °F 69% 30.07 in 10.0 mi NE 3.5 mph - N/A   Overcast
1:55 PM 71.6 °F 60.8 °F 69% 30.06 in 10.0 mi East 3.5 mph - N/A   Mostly Cloudy
2:15 PM 71.6 °F 60.8 °F 69% 30.06 in 10.0 mi Calm Calm - N/A   Scattered Clouds
2:35 PM 73.4 °F 60.8 °F 65% 30.06 in 10.0 mi Calm Calm - N/A   Scattered Clouds
2:55 PM 73.4 °F 60.8 °F 65% 30.06 in 10.0 mi SSE 3.5 mph - N/A   Mostly Cloudy
3:15 PM 75.2 °F 62.6 °F 65% 30.06 in 10.0 mi Calm Calm - N/A   Mostly Cloudy
3:35 PM 77.0 °F 60.8 °F 57% 30.05 in 10.0 mi East 4.6 mph - N/A   Mostly Cloudy
3:55 PM 75.2 °F 60.8 °F 61% 30.05 in 10.0 mi East 3.5 mph - N/A   Scattered Clouds
4:15 PM 77.0 °F 62.6 °F 61% 30.05 in 10.0 mi ESE 5.8 mph - N/A   Scattered Clouds
4:35 PM 77.0 °F 62.6 °F 61% 30.05 in 10.0 mi East 4.6 mph - N/A   Mostly Cloudy
4:55 PM 77.0 °F 60.8 °F 57% 30.04 in 10.0 mi Calm Calm - N/A   Mostly Cloudy
5:15 PM 77.0 °F 60.8 °F 57% 30.04 in 10.0 mi East 5.8 mph - N/A   Mostly Cloudy
5:35 PM 77.0 °F 62.6 °F 61% 30.05 in 10.0 mi ESE 4.6 mph - N/A   Scattered Clouds
5:55 PM 77.0 °F 62.6 °F 61% 30.05 in 10.0 mi Calm Calm - N/A   Scattered Clouds
6:15 PM 77.0 °F 62.6 °F 61% 30.06 in 10.0 mi ESE 4.6 mph - N/A   Scattered Clouds
6:35 PM 73.4 °F 62.6 °F 69% 30.05 in 10.0 mi ESE 3.5 mph - N/A   Clear
6:55 PM 75.2 °F 62.6 °F 65% 30.05 in 10.0 mi Calm Calm - N/A   Clear
7:15 PM 75.2 °F 62.6 °F 65% 30.05 in 10.0 mi Calm Calm - N/A   Clear
7:35 PM 73.4 °F 62.6 °F 69% 30.06 in 10.0 mi Calm Calm - N/A   Clear
7:55 PM 73.4 °F 62.6 °F 69% 30.06 in 10.0 mi Calm Calm - N/A   Clear
8:15 PM 69.8 °F 64.4 °F 83% 30.07 in 10.0 mi Calm Calm - N/A   Clear
8:35 PM 68.0 °F 64.4 °F 88% 30.08 in 10.0 mi Calm Calm - N/A   Clear
8:55 PM 68.0 °F 64.4 °F 88% 30.08 in 10.0 mi Calm Calm - N/A   Clear
9:15 PM 66.2 °F 64.4 °F 94% 30.09 in 10.0 mi Calm Calm - N/A   Clear
9:35 PM 64.4 °F 64.4 °F 100% 30.10 in 10.0 mi Calm Calm - N/A   Clear
9:55 PM 68.0 °F 64.4 °F 88% 30.11 in 10.0 mi East 6.9 mph - N/A   Clear
10:15 PM 68.0 °F 64.4 °F 88% 30.12 in 10.0 mi East 5.8 mph - N/A   Clear
10:35 PM 68.0 °F 62.6 °F 83% 30.13 in 10.0 mi East 8.1 mph - N/A   Clear
10:55 PM 66.2 °F 62.6 °F 88% 30.13 in 10.0 mi East 8.1 mph - N/A   Clear
11:15 PM 66.2 °F 62.6 °F 88% 30.13 in 10.0 mi ESE 4.6 mph - N/A   Clear
11:35 PM 66.2 °F 62.6 °F 88% 30.14 in 10.0 mi SE 4.6 mph - N/A   Clear
11:55 PM 64.4 °F 62.6 °F 94% 30.15 in 10.0 mi SE 3.5 mph - N/A   Clear